,,,PA_Meas_PMT16A,,PR_Meas_QMR101_102,,RH_Meas_QMH101,,SR_Meas_QMS101,,TA_Meas_QMH101,,GenWind,,GenWind,
date,time,status,PA,status,PR,status,RH,status,SR,status,TA,status,DirAvg,status,SpdAvg,
2012-01-05, 00:00:05,VALID,1001.3,VALID,0,VALID,92.5397,VALID,0,VALID,24.5599,VALID,24,VALID,0,
2012-01-05, 00:01:05,VALID,1001.27,VALID,0,VALID,92.5397,VALID,0,VALID,24.5599,VALID,24,VALID,0,
2012-01-05, 00:02:05,VALID,1001.28,VALID,0,VALID,92.532,VALID,0,VALID,24.5599,VALID,24,VALID,0,
2012-01-05, 00:03:05,VALID,1001.3,VALID,0,VALID,92.5168,VALID,0,VALID,24.5404,VALID,24,VALID,0,
2012-01-05, 00:04:05,VALID,1001.26,VALID,0,VALID,92.5244,VALID,0,VALID,24.5404,VALID,24,VALID,0,
2012-01-05, 00:05:05,VALID,1001.24,VALID,0,VALID,92.5244,VALID,0,VALID,24.5599,VALID,24,VALID,0,
2012-01-05, 00:06:05,VALID,1001.26,VALID,0,VALID,92.5473,VALID,0,VALID,24.5794,VALID,24,VALID,0,
2012-01-05, 00:07:05,VALID,1001.22,VALID,0,VALID,92.5168,VALID,0,VALID,24.5794,VALID,24,VALID,0,
2012-01-05, 00:08:05,VALID,1001.2,VALID,0,VALID,92.5015,VALID,0,VALID,24.5794,VALID,24,VALID,0,
2012-01-05, 00:09:05,VALID,1001.2,VALID,0,VALID,92.5091,VALID,0,VALID,24.558,VALID,24,VALID,0,
2012-01-05, 00:10:05,VALID,1001.15,VALID,0,VALID,92.4863,VALID,0.104696,VALID,24.5971,VALID,24,VALID,0,
2012-01-05, 00:11:05,VALID,1001.13,VALID,0,VALID,92.4634,VALID,0,VALID,24.5971,VALID,24,VALID,0,
2012-01-05, 00:12:05,VALID,1001.08,VALID,0,VALID,92.4786,VALID,0,VALID,24.5971,VALID,24,VALID,0,
2012-01-05, 00:13:05,VALID,1001.11,VALID,0,VALID,92.4557,VALID,0,VALID,24.5971,VALID,88,VALID,0,
2012-01-05, 00:14:05,VALID,1001.09,VALID,0,VALID,92.4634,VALID,0,VALID,24.6166,VALID,148,VALID,0.926172,
2012-01-05, 00:15:05,VALID,1001.09,VALID,0,VALID,92.3794,VALID,0,VALID,24.6361,VALID,159,VALID,0.798828,
2012-01-05, 00:16:05,VALID,1001.09,VALID,0,VALID,92.3489,VALID,0,VALID,24.6556,VALID,160,VALID,0.946094,
2012-01-05, 00:17:05,VALID,1001.09,VALID,0,VALID,92.3031,VALID,0.104696,VALID,24.6751,VALID,160,VALID,0.607031,
2012-01-05, 00:18:05,VALID,1001.07,VALID,0,VALID,92.2497,VALID,0,VALID,24.6751,VALID,160,VALID,0.897266,
2012-01-05, 00:19:05,VALID,1001.05,VALID,0,VALID,92.1963,VALID,0.104696,VALID,24.6946,VALID,160,VALID,0.894531,
2012-01-05, 00:20:05,VALID,1001.02,VALID,0,VALID,92.1963,VALID,0.104696,VALID,24.7142,VALID,160,VALID,1.01211,
2012-01-05, 00:21:05,VALID,1001,VALID,0,VALID,92.2803,VALID,0,VALID,24.7337,VALID,160,VALID,1.26484,
2012-01-05, 00:22:05,VALID,1001,VALID,0,VALID,92.3337,VALID,0.104696,VALID,24.7532,VALID,164,VALID,1.2332,
2012-01-05, 00:23:05,VALID,1001,VALID,0,VALID,92.3489,VALID,0,VALID,24.7922,VALID,175,VALID,1.52266,
2012-01-05, 00:24:05,VALID,1000.98,VALID,0,VALID,92.265,VALID,0,VALID,24.7922,VALID,178,VALID,1.30508,
2012-01-05, 00:25:05,VALID,1000.96,VALID,0,VALID,92.1353,VALID,0,VALID,24.8117,VALID,178,VALID,1.10273,
2012-01-05, 00:26:05,VALID,1000.97,VALID,0,VALID,92.0437,VALID,0.104696,VALID,24.7922,VALID,178,VALID,0.670703,
2012-01-05, 00:27:05,VALID,1000.95,VALID,0,VALID,91.9751,VALID,0,VALID,24.7922,VALID,178,VALID,0.827344,
2012-01-05, 00:28:05,VALID,1000.91,VALID,0,VALID,91.9217,VALID,0,VALID,24.7727,VALID,178,VALID,0.558203,
2012-01-05, 00:29:05,VALID,1000.88,VALID,0,VALID,91.8606,VALID,0.104696,VALID,24.7727,VALID,154,VALID,1.00508,
2012-01-05, 00:30:05,VALID,1000.87,VALID,0,VALID,91.792,VALID,0.104696,VALID,24.7727,VALID,155,VALID,1.20078,
2012-01-05, 00:31:05,VALID,1000.84,VALID,0,VALID,91.7462,VALID,0,VALID,24.7727,VALID,155,VALID,1.04766,
2012-01-05, 00:32:05,VALID,1000.8,VALID,0,VALID,91.7385,VALID,0,VALID,24.7532,VALID,155,VALID,0.836719,
2012-01-05, 00:33:05,VALID,1000.77,VALID,0,VALID,91.7157,VALID,0,VALID,24.7337,VALID,155,VALID,0.790234,
2012-01-05, 00:34:05,VALID,1000.77,VALID,0,VALID,91.7309,VALID,0.104696,VALID,24.716,VALID,153,VALID,0.85,
2012-01-05, 00:35:05,VALID,1000.75,VALID,0,VALID,91.7385,VALID,0,VALID,24.6751,VALID,140,VALID,0.772266,
2012-01-05, 00:36:05,VALID,1000.74,VALID,0,VALID,91.7996,VALID,0,VALID,24.6751,VALID,140,VALID,0.746094,
2012-01-05, 00:37:05,VALID,1000.74,VALID,0,VALID,91.8454,VALID,0,VALID,24.6556,VALID,140,VALID,0.661719,
2012-01-05, 00:38:05,VALID,1000.76,VALID,0,VALID,91.914,VALID,0,VALID,24.6556,VALID,140,VALID,0.530469,
2012-01-05, 00:39:05,VALID,1000.74,VALID,0,VALID,91.9522,VALID,0,VALID,24.6361,VALID,140,VALID,0.384766,
2012-01-05, 00:40:05,VALID,1000.73,VALID,0,VALID,91.9674,VALID,0,VALID,24.6361,VALID,140,VALID,0.636719,
2012-01-05, 00:41:05,VALID,1000.74,VALID,0,VALID,92.0209,VALID,0,VALID,24.6166,VALID,140,VALID,0.721094,
2012-01-05, 00:42:05,VALID,1000.71,VALID,0,VALID,92.059,VALID,0,VALID,24.6166,VALID,140,VALID,0.701172,
2012-01-05, 00:43:05,VALID,1000.72,VALID,0,VALID,92.1124,VALID,0,VALID,24.5971,VALID,140,VALID,0.964063,
2012-01-05, 00:44:05,VALID,1000.71,VALID,0,VALID,92.2268,VALID,0,VALID,24.5971,VALID,140,VALID,1.06328,
2012-01-05, 00:45:05,VALID,1000.68,VALID,0,VALID,92.2803,VALID,0,VALID,24.638,VALID,140,VALID,1.07266,
2012-01-05, 00:46:05,VALID,1000.68,VALID,0,VALID,92.3413,VALID,0,VALID,24.6184,VALID,140,VALID,1.00781,
2012-01-05, 00:47:05,VALID,1000.67,VALID,0,VALID,92.3718,VALID,0,VALID,24.5971,VALID,140,VALID,0.945313,
2012-01-05, 00:48:05,VALID,1000.69,VALID,0,VALID,92.3718,VALID,0.104696,VALID,24.5971,VALID,140,VALID,0.866797,
2012-01-05, 00:49:05,VALID,1000.67,VALID,0,VALID,92.3566,VALID,0,VALID,24.5971,VALID,140,VALID,0.619531,
2012-01-05, 00:50:05,VALID,1000.67,VALID,0,VALID,92.3947,VALID,0,VALID,24.5775,VALID,140,VALID,0.585547,
2012-01-05, 00:51:05,VALID,1000.69,VALID,0,VALID,92.4481,VALID,0,VALID,24.5794,VALID,140,VALID,0.488281,
2012-01-05, 00:52:05,VALID,1000.7,VALID,0,VALID,92.4634,VALID,0,VALID,24.558,VALID,140,VALID,0.249609,
2012-01-05, 00:53:05,VALID,1000.73,VALID,0,VALID,92.4786,VALID,0,VALID,24.5385,VALID,140,VALID,0.107031,
2012-01-05, 00:54:05,VALID,1000.73,VALID,0,VALID,92.4939,VALID,0,VALID,24.5794,VALID,140,VALID,0,
2012-01-05, 00:55:05,VALID,1000.69,VALID,0,VALID,92.5168,VALID,0,VALID,24.5385,VALID,140,VALID,0,
2012-01-05, 00:56:05,VALID,1000.68,VALID,0,VALID,92.5626,VALID,0,VALID,24.5385,VALID,140,VALID,0.143359,
2012-01-05, 00:57:05,VALID,1000.71,VALID,0,VALID,92.6007,VALID,0,VALID,24.5404,VALID,140,VALID,0.332031,
2012-01-05, 00:58:05,VALID,1000.68,VALID,0,VALID,92.6312,VALID,0,VALID,24.519,VALID,140,VALID,0.320703,
2012-01-05, 00:59:05,VALID,1000.62,VALID,0,VALID,92.6694,VALID,0,VALID,24.519,VALID,140,VALID,0.330859,
2012-01-05, 01:00:05,VALID,1000.65,VALID,0,VALID,92.6999,VALID,0,VALID,24.519,VALID,140,VALID,0.548047,
2012-01-05, 01:01:05,VALID,1000.63,VALID,0,VALID,92.738,VALID,0,VALID,24.519,VALID,140,VALID,0.505078,
2012-01-05, 01:02:05,VALID,1000.67,VALID,0,VALID,92.7075,VALID,0,VALID,24.519,VALID,140,VALID,0.51875,
2012-01-05, 01:03:05,VALID,1000.65,VALID,0,VALID,92.7304,VALID,0,VALID,24.4995,VALID,140,VALID,0.441406,
2012-01-05, 01:04:05,VALID,1000.64,VALID,0,VALID,92.6999,VALID,0,VALID,24.4818,VALID,140,VALID,0.325781,
2012-01-05, 01:05:05,VALID,1000.66,VALID,0,VALID,92.6999,VALID,0,VALID,24.4604,VALID,140,VALID,0.199609,
2012-01-05, 01:06:05,VALID,1000.68,VALID,0,VALID,92.7075,VALID,0,VALID,24.4214,VALID,140,VALID,0,
2012-01-05, 01:07:05,VALID,1000.68,VALID,0,VALID,92.6846,VALID,0,VALID,24.4019,VALID,140,VALID,0,
2012-01-05, 01:08:04,VALID,1000.66,VALID,0,VALID,92.6923,VALID,0,VALID,24.3824,VALID,140,VALID,0,
2012-01-05, 01:09:04,VALID,1000.69,VALID,0,VALID,92.7457,VALID,0,VALID,24.3842,VALID,140,VALID,0,
2012-01-05, 01:10:04,VALID,1000.63,VALID,0,VALID,92.7914,VALID,0,VALID,24.3647,VALID,140,VALID,0,
2012-01-05, 01:11:04,VALID,1000.64,VALID,0,VALID,92.8754,VALID,0,VALID,24.3433,VALID,140,VALID,0,
2012-01-05, 01:12:04,VALID,1000.58,VALID,0,VALID,92.9364,VALID,0,VALID,24.3647,VALID,140,VALID,0,
2012-01-05, 01:13:04,VALID,1000.55,VALID,0,VALID,93.0127,VALID,0,VALID,24.3647,VALID,140,VALID,0,
2012-01-05, 01:14:04,VALID,1000.54,VALID,0,VALID,93.0356,VALID,0,VALID,24.3647,VALID,140,VALID,0,
2012-01-05, 01:15:04,VALID,1000.54,VALID,0,VALID,93.0814,VALID,0,VALID,24.3647,VALID,140,VALID,0,
2012-01-05, 01:16:04,VALID,1000.51,VALID,0,VALID,93.089,VALID,0,VALID,24.3647,VALID,140,VALID,0,
2012-01-05, 01:17:04,VALID,1000.46,VALID,0,VALID,93.1424,VALID,0,VALID,24.3433,VALID,140,VALID,0,
2012-01-05, 01:18:04,VALID,1000.39,VALID,0,VALID,93.1653,VALID,0,VALID,24.3647,VALID,140,VALID,0,
2012-01-05, 01:19:04,VALID,1000.36,VALID,0,VALID,93.1653,VALID,0,VALID,24.3433,VALID,140,VALID,0.367188,
2012-01-05, 01:20:04,VALID,1000.33,VALID,0,VALID,93.1805,VALID,0,VALID,24.3433,VALID,160,VALID,0.895703,
2012-01-05, 01:21:04,VALID,1000.31,VALID,0,VALID,93.234,VALID,0,VALID,24.3842,VALID,160,VALID,0.819141,
2012-01-05, 01:22:04,VALID,1000.27,VALID,0,VALID,93.2645,VALID,0,VALID,24.4233,VALID,160,VALID,0.824609,
2012-01-05, 01:23:04,VALID,1000.3,VALID,0,VALID,93.2568,VALID,0,VALID,24.4428,VALID,187,VALID,1.19414,
2012-01-05, 01:24:04,VALID,1000.27,VALID,0,VALID,93.2492,VALID,0,VALID,24.4818,VALID,184,VALID,1.36328,
2012-01-05, 01:25:04,VALID,1000.27,VALID,0,VALID,93.1805,VALID,0,VALID,24.5013,VALID,195,VALID,1.16836,
2012-01-05, 01:26:04,VALID,1000.27,VALID,0,VALID,93.0814,VALID,0,VALID,24.5209,VALID,178,VALID,1.07969,
2012-01-05, 01:27:04,VALID,1000.28,VALID,0,VALID,92.9974,VALID,0,VALID,24.5404,VALID,185,VALID,0.85,
2012-01-05, 01:28:04,VALID,1000.26,VALID,0,VALID,92.9059,VALID,0,VALID,24.5385,VALID,186,VALID,1.28945,
2012-01-05, 01:29:04,VALID,1000.23,VALID,0,VALID,92.7991,VALID,0,VALID,24.5599,VALID,183,VALID,1.02813,
2012-01-05, 01:30:04,VALID,1000.24,VALID,0,VALID,92.7228,VALID,0,VALID,24.5775,VALID,187,VALID,0.988672,
2012-01-05, 01:31:04,VALID,1000.24,VALID,0,VALID,92.6388,VALID,0,VALID,24.5971,VALID,187,VALID,0.625,
2012-01-05, 01:32:04,VALID,1000.22,VALID,0,VALID,92.5626,VALID,0,VALID,24.6184,VALID,178,VALID,0.748438,
2012-01-05, 01:33:04,VALID,1000.21,VALID,0,VALID,92.5473,VALID,0,VALID,24.638,VALID,161,VALID,0.816016,
2012-01-05, 01:34:04,VALID,1000.21,VALID,0,VALID,92.4634,VALID,0,VALID,24.638,VALID,161,VALID,0.156641,
2012-01-05, 01:35:04,VALID,1000.2,VALID,0,VALID,92.3947,VALID,0,VALID,24.6361,VALID,161,VALID,0.034375,
2012-01-05, 01:36:04,VALID,1000.21,VALID,0,VALID,92.3413,VALID,0,VALID,24.6166,VALID,161,VALID,0.219141,
2012-01-05, 01:37:04,VALID,1000.17,VALID,0,VALID,92.3108,VALID,0,VALID,24.638,VALID,161,VALID,0.504297,
2012-01-05, 01:38:04,VALID,1000.14,VALID,0,VALID,92.3031,VALID,0,VALID,24.5989,VALID,150,VALID,0.505078,
2012-01-05, 01:39:04,VALID,1000.08,VALID,0,VALID,92.2955,VALID,0,VALID,24.5971,VALID,150,VALID,0.744141,
2012-01-05, 01:40:04,VALID,1000.09,VALID,0,VALID,92.3108,VALID,0,VALID,24.5794,VALID,150,VALID,0.685156,
2012-01-05, 01:41:04,VALID,1000.06,VALID,0,VALID,92.2574,VALID,0,VALID,24.5794,VALID,154,VALID,0.621875,
2012-01-05, 01:42:04,VALID,1000.05,VALID,0,VALID,92.2726,VALID,0,VALID,24.5794,VALID,154,VALID,0.292188,
2012-01-05, 01:43:04,VALID,1000.06,VALID,0,VALID,92.265,VALID,0,VALID,24.558,VALID,154,VALID,0.296484,
2012-01-05, 01:44:04,VALID,1000.07,VALID,0,VALID,92.3184,VALID,0,VALID,24.5385,VALID,154,VALID,0.356641,
2012-01-05, 01:45:04,VALID,1000.07,VALID,0,VALID,92.3794,VALID,0,VALID,24.558,VALID,154,VALID,0.321875,
2012-01-05, 01:46:04,VALID,1000.04,VALID,0,VALID,92.4023,VALID,0.104696,VALID,24.5385,VALID,154,VALID,0.345313,
2012-01-05, 01:47:04,VALID,1000.03,VALID,0,VALID,92.4176,VALID,0,VALID,24.5794,VALID,154,VALID,0,
2012-01-05, 01:48:04,VALID,1000.04,VALID,0,VALID,92.4176,VALID,0,VALID,24.558,VALID,154,VALID,0.372266,
2012-01-05, 01:49:04,VALID,1000.02,VALID,0,VALID,92.4252,VALID,0,VALID,24.558,VALID,154,VALID,0.404687,
2012-01-05, 01:50:04,VALID,1000.04,VALID,0,VALID,92.41,VALID,0,VALID,24.5385,VALID,154,VALID,0.300781,
2012-01-05, 01:51:04,VALID,1000.02,VALID,0,VALID,92.4481,VALID,0,VALID,24.558,VALID,154,VALID,0.0554687,
2012-01-05, 01:52:04,VALID,1000.05,VALID,0,VALID,92.4863,VALID,0,VALID,24.5385,VALID,154,VALID,0,
2012-01-05, 01:53:04,VALID,1000.01,VALID,0,VALID,92.5015,VALID,0,VALID,24.5794,VALID,154,VALID,0,
2012-01-05, 01:54:04,VALID,1000.03,VALID,0,VALID,92.5626,VALID,0,VALID,24.558,VALID,154,VALID,0.275,
2012-01-05, 01:55:04,VALID,1000.01,VALID,0,VALID,92.6007,VALID,0,VALID,24.558,VALID,154,VALID,0.449609,
2012-01-05, 01:56:04,VALID,1000.01,VALID,0,VALID,92.616,VALID,0,VALID,24.558,VALID,100,VALID,0.701172,
2012-01-05, 01:57:04,VALID,1000.02,VALID,0,VALID,92.6846,VALID,0,VALID,24.5599,VALID,62,VALID,0.887891,
2012-01-05, 01:58:04,VALID,999.995,VALID,0,VALID,92.7609,VALID,0,VALID,24.5404,VALID,56,VALID,1.09531,
2012-01-05, 01:59:04,VALID,999.967,VALID,0,VALID,92.8754,VALID,0,VALID,24.5404,VALID,50,VALID,1.27813,
2012-01-05, 02:00:04,VALID,999.972,VALID,0,VALID,92.9745,VALID,0,VALID,24.5385,VALID,47,VALID,1.43789,
2012-01-05, 02:01:04,VALID,999.955,VALID,0,VALID,93.028,VALID,0,VALID,24.5404,VALID,42,VALID,1.6793,
2012-01-05, 02:02:04,VALID,999.967,VALID,0,VALID,93.089,VALID,0,VALID,24.4995,VALID,40,VALID,1.55742,
2012-01-05, 02:03:04,VALID,999.936,VALID,0,VALID,93.1805,VALID,0,VALID,24.4995,VALID,34,VALID,2.04219,
2012-01-05, 02:04:04,VALID,999.975,VALID,0,VALID,93.2492,VALID,0,VALID,24.5404,VALID,28,VALID,2.13281,
2012-01-05, 02:05:04,VALID,999.961,VALID,0,VALID,93.3408,VALID,0,VALID,24.519,VALID,24,VALID,2.24609,
2012-01-05, 02:06:04,VALID,999.937,VALID,0,VALID,93.3789,VALID,0,VALID,24.5404,VALID,14,VALID,2.38672,
2012-01-05, 02:07:04,VALID,999.946,VALID,0,VALID,93.3484,VALID,0,VALID,24.5013,VALID,13,VALID,2.35469,
2012-01-05, 02:08:04,VALID,999.954,VALID,0,VALID,93.3179,VALID,0,VALID,24.4409,VALID,6,VALID,2.70859,
2012-01-05, 02:09:04,VALID,999.941,VALID,0,VALID,93.2874,VALID,0,VALID,24.3824,VALID,8,VALID,2.17148,
2012-01-05, 02:10:04,VALID,999.936,VALID,0,VALID,93.3179,VALID,0,VALID,24.3452,VALID,10,VALID,1.63867,
2012-01-05, 02:11:04,VALID,999.934,VALID,0,VALID,93.3713,VALID,0,VALID,24.3257,VALID,12,VALID,2.47617,
2012-01-05, 02:12:04,VALID,999.922,VALID,0,VALID,93.4171,VALID,0,VALID,24.2866,VALID,12,VALID,1.61914,
2012-01-05, 02:13:04,VALID,999.918,VALID,0,VALID,93.4857,VALID,0,VALID,24.2866,VALID,20,VALID,1.98711,
2012-01-05, 02:14:04,VALID,999.948,VALID,0,VALID,93.5315,VALID,0,VALID,24.2671,VALID,22,VALID,1.66016,
2012-01-05, 02:15:04,VALID,999.916,VALID,0,VALID,93.6002,VALID,0,VALID,24.2671,VALID,18,VALID,1.79102,
2012-01-05, 02:16:04,VALID,999.958,VALID,0,VALID,93.6154,VALID,0,VALID,24.2866,VALID,16,VALID,1.25391,
2012-01-05, 02:17:04,VALID,999.972,VALID,0,VALID,93.6612,VALID,0,VALID,24.2653,VALID,12,VALID,1.31055,
2012-01-05, 02:18:04,VALID,999.98,VALID,0,VALID,93.6841,VALID,0,VALID,24.2653,VALID,9,VALID,1.06797,
2012-01-05, 02:19:04,VALID,999.973,VALID,0,VALID,93.6917,VALID,0,VALID,24.3062,VALID,15,VALID,1.30078,
2012-01-05, 02:20:04,VALID,999.97,VALID,0,VALID,93.707,VALID,0,VALID,24.3043,VALID,15,VALID,1.17891,
2012-01-05, 02:21:04,VALID,999.945,VALID,0,VALID,93.707,VALID,0,VALID,24.3257,VALID,12,VALID,1.0625,
2012-01-05, 02:22:04,VALID,999.954,VALID,0,VALID,93.6994,VALID,0,VALID,24.3238,VALID,11,VALID,0.685547,
2012-01-05, 02:23:04,VALID,999.95,VALID,0,VALID,93.6841,VALID,0,VALID,24.3452,VALID,11,VALID,0.324609,
2012-01-05, 02:24:04,VALID,999.925,VALID,0,VALID,93.6917,VALID,0,VALID,24.3433,VALID,11,VALID,0.244531,
2012-01-05, 02:25:04,VALID,999.887,VALID,0,VALID,93.6612,VALID,0,VALID,24.3842,VALID,11,VALID,0,
2012-01-05, 02:26:04,VALID,999.899,VALID,0,VALID,93.6612,VALID,0,VALID,24.3842,VALID,11,VALID,0,
2012-01-05, 02:27:04,VALID,999.909,VALID,0,VALID,93.6307,VALID,0,VALID,24.3629,VALID,11,VALID,0,
2012-01-05, 02:28:04,VALID,999.867,VALID,0,VALID,93.6231,VALID,0,VALID,24.3824,VALID,11,VALID,0,
2012-01-05, 02:29:04,VALID,999.841,VALID,0,VALID,93.6307,VALID,0,VALID,24.3824,VALID,11,VALID,0,
2012-01-05, 02:30:04,VALID,999.795,VALID,0,VALID,93.5544,VALID,0,VALID,24.3824,VALID,11,VALID,0.0429688,
2012-01-05, 02:31:04,VALID,999.776,VALID,0,VALID,93.5239,VALID,0,VALID,24.3824,VALID,11,VALID,0,
2012-01-05, 02:32:04,VALID,999.781,VALID,0,VALID,93.501,VALID,0,VALID,24.3824,VALID,11,VALID,0,
2012-01-05, 02:33:04,VALID,999.772,VALID,0,VALID,93.4934,VALID,0,VALID,24.3824,VALID,11,VALID,0,
2012-01-05, 02:34:04,VALID,999.775,VALID,0,VALID,93.4705,VALID,0,VALID,24.4037,VALID,11,VALID,0,
2012-01-05, 02:35:04,VALID,999.745,VALID,0,VALID,93.4323,VALID,0,VALID,24.4019,VALID,11,VALID,0,
2012-01-05, 02:36:04,VALID,999.713,VALID,0,VALID,93.4323,VALID,0,VALID,24.4019,VALID,11,VALID,0,
2012-01-05, 02:37:04,VALID,999.692,VALID,0,VALID,93.4323,VALID,0,VALID,24.4019,VALID,11,VALID,0,
2012-01-05, 02:38:04,VALID,999.694,VALID,0,VALID,93.4247,VALID,0,VALID,24.4233,VALID,11,VALID,0,
2012-01-05, 02:39:04,VALID,999.712,VALID,0,VALID,93.4094,VALID,0.104696,VALID,24.4214,VALID,11,VALID,0,
2012-01-05, 02:40:04,VALID,999.643,VALID,0,VALID,93.4018,VALID,0,VALID,24.4409,VALID,11,VALID,0.280469,
2012-01-05, 02:41:04,VALID,999.689,VALID,0,VALID,93.3789,VALID,0,VALID,24.4214,VALID,11,VALID,0.175391,
2012-01-05, 02:42:04,VALID,999.633,VALID,0,VALID,93.3255,VALID,0,VALID,24.4214,VALID,11,VALID,0.207422,
2012-01-05, 02:43:04,VALID,999.651,VALID,0,VALID,93.2874,VALID,0,VALID,24.4428,VALID,11,VALID,0.391797,
2012-01-05, 02:44:04,VALID,999.665,VALID,0,VALID,93.2721,VALID,0,VALID,24.4604,VALID,11,VALID,0.190234,
2012-01-05, 02:45:04,VALID,999.673,VALID,0,VALID,93.2645,VALID,0,VALID,24.5013,VALID,11,VALID,0,
2012-01-05, 02:46:04,VALID,999.689,VALID,0,VALID,93.2492,VALID,0,VALID,24.48,VALID,11,VALID,0,
2012-01-05, 02:47:04,VALID,999.7,VALID,0,VALID,93.1805,VALID,0,VALID,24.5013,VALID,43,VALID,0.768359,
2012-01-05, 02:48:04,VALID,999.705,VALID,0,VALID,93.1271,VALID,0,VALID,24.5209,VALID,45,VALID,0.570313,
2012-01-05, 02:49:04,VALID,999.685,VALID,0,VALID,93.1653,VALID,0,VALID,24.5404,VALID,67,VALID,0.749609,
2012-01-05, 02:50:04,VALID,999.654,VALID,0,VALID,93.089,VALID,0,VALID,24.519,VALID,67,VALID,0.781641,
2012-01-05, 02:51:04,VALID,999.636,VALID,0,VALID,92.9669,VALID,0.104696,VALID,24.519,VALID,72,VALID,0.614453,
2012-01-05, 02:52:04,VALID,999.638,VALID,0,VALID,92.8983,VALID,0,VALID,24.519,VALID,72,VALID,0.576172,
2012-01-05, 02:53:04,VALID,999.624,VALID,0,VALID,92.9135,VALID,0,VALID,24.5385,VALID,72,VALID,0.725,
2012-01-05, 02:54:04,VALID,999.589,VALID,0,VALID,92.9059,VALID,0,VALID,24.558,VALID,72,VALID,0.598047,
2012-01-05, 02:55:04,VALID,999.573,VALID,0,VALID,92.9288,VALID,0,VALID,24.5775,VALID,72,VALID,0.433984,
2012-01-05, 02:56:04,VALID,999.57,VALID,0,VALID,92.944,VALID,0,VALID,24.5775,VALID,72,VALID,0.336719,
2012-01-05, 02:57:04,VALID,999.579,VALID,0,VALID,92.9593,VALID,0,VALID,24.5971,VALID,72,VALID,0.330859,
2012-01-05, 02:58:04,VALID,999.563,VALID,0,VALID,92.9517,VALID,0,VALID,24.5971,VALID,72,VALID,0.388672,
2012-01-05, 02:59:04,VALID,999.514,VALID,0,VALID,92.9822,VALID,0,VALID,24.5971,VALID,72,VALID,0.483203,
2012-01-05, 03:00:04,VALID,999.513,VALID,0,VALID,92.9898,VALID,0,VALID,24.6184,VALID,126,VALID,0.628516,
2012-01-05, 03:01:04,VALID,999.521,VALID,0,VALID,92.9974,VALID,0,VALID,24.5971,VALID,126,VALID,0.930859,
2012-01-05, 03:02:04,VALID,999.521,VALID,0,VALID,93.0203,VALID,0,VALID,24.5971,VALID,126,VALID,0.937891,
2012-01-05, 03:03:04,VALID,999.475,VALID,0,VALID,93.028,VALID,0,VALID,24.5989,VALID,126,VALID,1.00742,
2012-01-05, 03:04:04,VALID,999.475,VALID,0,VALID,93.0737,VALID,0,VALID,24.5775,VALID,126,VALID,0.884375,
2012-01-05, 03:05:04,VALID,999.44,VALID,0,VALID,93.0585,VALID,0,VALID,24.5775,VALID,126,VALID,1.01133,
2012-01-05, 03:06:04,VALID,999.439,VALID,0,VALID,93.0585,VALID,0.104696,VALID,24.5775,VALID,126,VALID,0.926953,
2012-01-05, 03:07:04,VALID,999.418,VALID,0,VALID,93.0051,VALID,0,VALID,24.558,VALID,126,VALID,0.788281,
2012-01-05, 03:08:04,VALID,999.402,VALID,0,VALID,93.0051,VALID,0,VALID,24.558,VALID,126,VALID,0.908984,
2012-01-05, 03:09:04,VALID,999.38,VALID,0,VALID,93.0051,VALID,0.104696,VALID,24.558,VALID,126,VALID,0.976172,
2012-01-05, 03:10:04,VALID,999.406,VALID,0,VALID,92.9974,VALID,0,VALID,24.5599,VALID,126,VALID,0.569531,
2012-01-05, 03:11:04,VALID,999.4,VALID,0,VALID,92.9898,VALID,0,VALID,24.5813,VALID,126,VALID,0.794531,
2012-01-05, 03:12:04,VALID,999.389,VALID,0,VALID,92.9822,VALID,0,VALID,24.5618,VALID,126,VALID,0.676172,
2012-01-05, 03:13:04,VALID,999.37,VALID,0,VALID,92.9974,VALID,0,VALID,24.5599,VALID,139,VALID,1.08008,
2012-01-05, 03:14:04,VALID,999.397,VALID,0,VALID,92.9822,VALID,0,VALID,24.5599,VALID,132,VALID,1.16875,
2012-01-05, 03:15:04,VALID,999.385,VALID,0,VALID,92.9364,VALID,0,VALID,24.5599,VALID,132,VALID,0.996875,
2012-01-05, 03:16:04,VALID,999.354,VALID,0,VALID,92.944,VALID,0,VALID,24.5599,VALID,132,VALID,0.770703,
2012-01-05, 03:17:04,VALID,999.362,VALID,0,VALID,92.9288,VALID,0,VALID,24.5599,VALID,130,VALID,0.75,
2012-01-05, 03:18:04,VALID,999.4,VALID,0,VALID,92.9745,VALID,0,VALID,24.5599,VALID,112,VALID,1.01914,
2012-01-05, 03:19:04,VALID,999.365,VALID,0,VALID,93.0356,VALID,0,VALID,24.5813,VALID,107,VALID,1.06406,
2012-01-05, 03:20:04,VALID,999.369,VALID,0,VALID,93.0814,VALID,0,VALID,24.6008,VALID,98,VALID,1.26211,
2012-01-05, 03:21:04,VALID,999.37,VALID,0,VALID,93.1577,VALID,0,VALID,24.5794,VALID,92,VALID,1.4375,
2012-01-05, 03:22:04,VALID,999.384,VALID,0,VALID,93.2111,VALID,0,VALID,24.5794,VALID,92,VALID,1.28437,
2012-01-05, 03:23:04,VALID,999.372,VALID,0,VALID,93.2797,VALID,0,VALID,24.5599,VALID,92,VALID,1.1543,
2012-01-05, 03:24:04,VALID,999.344,VALID,0,VALID,93.3179,VALID,0,VALID,24.5599,VALID,87,VALID,0.842578,
2012-01-05, 03:25:04,VALID,999.38,VALID,0,VALID,93.3484,VALID,0,VALID,24.558,VALID,91,VALID,1.13984,
2012-01-05, 03:26:04,VALID,999.345,VALID,0,VALID,93.3484,VALID,0,VALID,24.5385,VALID,87,VALID,0.883594,
2012-01-05, 03:27:04,VALID,999.354,VALID,0,VALID,93.3637,VALID,0,VALID,24.5385,VALID,86,VALID,0.838672,
2012-01-05, 03:28:04,VALID,999.37,VALID,0,VALID,93.3484,VALID,0,VALID,24.519,VALID,86,VALID,0.645703,
2012-01-05, 03:29:04,VALID,999.384,VALID,0,VALID,93.3637,VALID,0,VALID,24.4995,VALID,86,VALID,0.580469,
2012-01-05, 03:30:04,VALID,999.382,VALID,0,VALID,93.3866,VALID,0,VALID,24.48,VALID,57,VALID,0.621094,
2012-01-05, 03:31:04,VALID,999.392,VALID,0,VALID,93.3789,VALID,0,VALID,24.4604,VALID,54,VALID,0.641406,
2012-01-05, 03:32:04,VALID,999.418,VALID,0,VALID,93.3713,VALID,0,VALID,24.4818,VALID,44,VALID,0.503125,
2012-01-05, 03:33:04,VALID,999.446,VALID,0,VALID,93.356,VALID,0,VALID,24.4409,VALID,44,VALID,0.365234,
2012-01-05, 03:34:04,VALID,999.405,VALID,0,VALID,93.3637,VALID,0,VALID,24.4214,VALID,44,VALID,0.537109,
2012-01-05, 03:35:04,VALID,999.428,VALID,0,VALID,93.3637,VALID,0,VALID,24.4214,VALID,44,VALID,0.663672,
2012-01-05, 03:36:04,VALID,999.395,VALID,0,VALID,93.3408,VALID,0,VALID,24.4428,VALID,44,VALID,0.542969,
2012-01-05, 03:37:04,VALID,999.386,VALID,0,VALID,93.3484,VALID,0,VALID,24.4409,VALID,44,VALID,0.752734,
2012-01-05, 03:38:04,VALID,999.402,VALID,0,VALID,93.356,VALID,0,VALID,24.4623,VALID,48,VALID,0.821875,
2012-01-05, 03:39:04,VALID,999.402,VALID,0,VALID,93.356,VALID,0,VALID,24.4604,VALID,55,VALID,0.834375,
2012-01-05, 03:40:04,VALID,999.418,VALID,0,VALID,93.356,VALID,0,VALID,24.4604,VALID,55,VALID,0.909375,
2012-01-05, 03:41:04,VALID,999.388,VALID,0,VALID,93.3331,VALID,0,VALID,24.48,VALID,55,VALID,0.910547,
2012-01-05, 03:42:04,VALID,999.42,VALID,0,VALID,93.3789,VALID,0,VALID,24.5209,VALID,55,VALID,1.07734,
2012-01-05, 03:43:04,VALID,999.401,VALID,0,VALID,93.3866,VALID,0,VALID,24.519,VALID,54,VALID,0.938281,
2012-01-05, 03:44:04,VALID,999.391,VALID,0,VALID,93.356,VALID,0,VALID,24.5404,VALID,53,VALID,1.09687,
2012-01-05, 03:45:04,VALID,999.389,VALID,0,VALID,93.3637,VALID,0,VALID,24.5599,VALID,53,VALID,0.867578,
2012-01-05, 03:46:04,VALID,999.393,VALID,0,VALID,93.3789,VALID,0,VALID,24.5385,VALID,53,VALID,1.03125,
2012-01-05, 03:47:04,VALID,999.378,VALID,0,VALID,93.3942,VALID,0,VALID,24.5794,VALID,55,VALID,0.856641,
2012-01-05, 03:48:04,VALID,999.347,VALID,0,VALID,93.3942,VALID,0,VALID,24.5775,VALID,55,VALID,0.702344,